[[{"header":{"parameterUnit":"m.s-1","parameterCategory":1,"la1":30.2991,"la2":30.254,"lo1":-89.0895,"lo2":-89.0444,"dy":0.0017,"dx":0.0017,"nx":28,"ny":28,"refTime":"2023-11-11T09:00:00:Z","depth":0,"parameterNumber":2,"parameterNumberName":"U-component_of_WINDS"},"data":[0,0,0,0,0,0,0,0,0,0,0,0,0,0,0,0,0,0,0,0,0,0,0,0,0,0,0,0,0,0,0,0,0,0,0,0,0,0,0,0,0,0,0,0,0,0,0,0,0,0,0,0,0,0,0,0,0,0,-2.631,-2.6309,0,-2.6292,-2.6292,-2.6291,-2.622,-2.6218,-2.6217,-2.6215,-2.6199,-2.62,-2.6201,0,0,0,0,0,0,0,0,0,0,0,0,0,-2.6283,-2.6284,-2.631,-2.6309,-2.6309,-2.6292,-2.6292,-2.6291,-2.622,-2.6218,-2.6216,-2.6214,-2.6198,-2.62,-2.6201,0,0,0,0,0,0,0,0,0,0,0,0,0,-2.6283,-2.6284,-2.631,-2.6272,-2.6268,-2.6292,-2.6292,-2.6291,-2.6221,-2.6218,-2.6216,-2.6213,-2.6198,-2.62,-2.6201,-2.6261,0,0,-2.6206,-2.6207,0,0,0,0,0,0,0,0,-2.6283,-2.6284,-2.6277,-2.6274,-2.627,-2.6256,-2.6276,-2.6281,-2.6221,-2.6239,-2.6215,-2.6212,-2.622,-2.622,-2.6222,-2.626,-2.626,-2.6206,-2.6207,-2.6208,-2.6209,0,0,0,0,0,0,0,-2.6283,-2.6284,-2.6303,-2.6277,-2.6273,-2.6256,-2.6253,-2.6277,-2.6243,-2.6237,-2.6232,-2.6231,-2.6217,-2.622,-2.6221,-2.6259,-2.6206,-2.6208,-2.6209,-2.621,-2.6346,-2.6349,0,0,0,0,0,0,-2.6288,-2.6285,-2.6303,-2.6302,-2.6271,-2.6258,-2.6255,-2.6263,-2.6243,-2.6238,-2.6233,-2.6227,-2.6219,-2.6219,-2.622,-2.6289,-2.6208,-2.621,-2.6211,-2.6343,-2.6347,-2.6349,0,0,0,0,0,0,-2.6288,-2.6291,-2.6304,-2.6292,-2.6292,-2.6261,-2.6271,-2.6264,-2.6266,-2.624,-2.6234,-2.6242,-2.6217,-2.6218,-2.6251,-2.6287,-2.621,-2.6212,-2.634,-2.6344,-2.6348,-2.6427,0,0,0,0,0,0,-2.6288,-2.6291,-2.6313,-2.6293,-2.6293,-2.6335,-2.6273,-2.6265,-2.6269,-2.6262,-2.6246,-2.6242,-2.6215,-2.6249,-2.6253,-2.6288,-2.6213,-2.6337,-2.6342,-2.6347,-2.6421,-2.6433,-2.6443,0,0,0,0,0,-2.6287,-2.6337,-2.6315,-2.6317,-2.632,-2.6337,-2.6338,-2.6305,-2.6273,-2.6295,-2.6277,-2.6242,-2.6283,-2.6253,-2.6257,-2.6293,-2.6335,-2.6341,-2.6346,-2.6416,-2.6431,-2.6443,0,0,0,0,0,0,-2.6362,-2.6333,-2.6309,-2.6353,-2.6348,-2.6325,-2.6352,-2.6322,-2.6327,-2.632,-2.628,-2.6277,-2.6317,-2.6308,-2.6276,-2.635,-2.6303,-2.631,-2.6354,-2.6368,-2.6379,-2.638,-2.6215,0,0,0,0,0,-2.6384,-2.64,-2.6374,-2.6415,-2.6414,-2.6384,-2.639,-2.6366,-2.6359,-2.6357,-2.6342,-2.6338,-2.6349,-2.6358,-2.6367,-2.6419,-2.6415,-2.6446,-2.6457,-2.6466,-2.6473,-2.65,-2.6513,-2.6369,-2.6369,-2.6369,0,0,-2.6429,-2.6415,-2.6428,-2.643,-2.6424,-2.6441,-2.6383,-2.6404,-2.6417,-2.636,-2.6391,-2.638,-2.6373,-2.6416,-2.6434,-2.641,-2.6512,-2.6474,-2.6482,-2.6483,-2.6507,-2.6521,-2.6533,-2.6373,-2.6372,-2.6372,0,0,-2.6521,-2.6512,-2.6545,-2.654,-2.653,-2.6509,-2.6518,-2.6499,-2.649,-2.652,-2.6478,-2.6493,-2.6514,-2.651,-2.6511,-2.6601,-2.6569,-2.6605,-2.6664,-2.6691,-2.6702,-2.6712,-2.6744,-2.6756,-2.6612,-2.6612,-2.6612,0,-2.6579,-2.6603,-2.6567,-2.6591,-2.6593,-2.6542,-2.6576,-2.6572,-2.6567,-2.657,-2.6543,-2.6567,-2.6559,-2.66,-2.6622,-2.6625,-2.6633,-2.6607,-2.6703,-2.6713,-2.6721,-2.6752,-2.6764,-2.6616,-2.6616,-2.6615,-2.6615,0,-2.6675,-2.6692,-2.6721,-2.6716,-2.6721,-2.675,-2.6719,-2.6729,-2.6704,-2.6686,-2.6718,-2.6705,-2.6711,-2.6719,-2.6695,-2.6758,-2.6743,-2.671,-2.6662,-2.674,-2.6768,-2.678,-2.6623,-2.6621,-2.662,-2.6619,0,0,-2.6814,-2.6788,-2.6799,-2.6796,-2.6781,-2.6795,-2.6822,-2.6826,-2.6836,-2.6834,-2.6856,-2.6874,-2.6844,-2.6845,-2.682,-2.6843,-2.6916,-2.6807,-2.6807,-2.6828,-2.6984,-2.7009,-2.7023,-2.6894,-2.6896,-2.6898,-2.6985,0,-2.6901,-2.6945,-2.6913,-2.6962,-2.6978,-2.693,-2.6953,-2.6947,-2.6931,-2.6943,-2.6926,-2.694,-2.6898,-2.6899,-2.6919,-2.6903,-2.6946,-2.6896,-2.6915,-2.6916,-2.6918,-2.7038,-2.7064,-2.7147,-2.6995,-2.6997,-2.6998,0,-2.701,-2.7011,-2.7062,-2.7044,-2.705,-2.7071,-2.7073,-2.7085,-2.7077,-2.7064,-2.7065,-2.7034,-2.7059,-2.7012,-2.7046,-2.7013,-2.7018,-2.7011,-2.7014,-2.7015,-2.6962,-2.7042,-2.7173,-2.7185,-2.7015,-2.7014,-2.7013,0,-2.7107,-2.7122,-2.7154,-2.7153,-2.7132,-2.7149,-2.7141,-2.7131,-2.7136,-2.7137,-2.714,-2.7146,-2.7149,-2.7154,-2.7125,-2.7093,-2.7164,-2.7114,-2.7154,-2.7155,-2.7172,-2.7171,-2.7306,-2.7175,-2.7175,-2.7175,-2.7174,0,-2.7208,-2.7241,-2.7197,-2.7217,-2.7253,-2.7216,-2.7252,-2.724,-2.7231,-2.7248,-2.7206,-2.7223,-2.7184,-2.7197,-2.7175,-2.7208,-2.7209,-2.72,-2.7194,-2.7204,-2.7205,-2.7207,-2.7201,-2.7178,-2.7177,-2.7177,-2.7176,0,-2.7323,-2.7295,-2.7327,-2.7304,-2.7299,-2.7327,-2.7308,-2.7326,-2.7307,-2.7329,-2.7332,-2.7303,-2.7316,-2.7288,-2.7298,-2.7283,-2.7329,-2.7313,-2.7331,-2.7327,-2.7369,-2.7366,-2.751,-2.7527,-2.7386,-2.7387,-2.7388,0,-2.739,-2.7414,-2.7394,-2.7402,-2.7396,-2.741,-2.7414,-2.7379,-2.7385,-2.7378,-2.7397,-2.7407,-2.7412,-2.7436,-2.7416,-2.7424,-2.7408,-2.7458,-2.7409,-2.7419,-2.741,-2.7409,-2.7411,-2.7469,-2.747,-2.7472,-2.7473,0,-2.7512,-2.7496,-2.7504,-2.7507,-2.7514,-2.7515,-2.7513,-2.7522,-2.7484,-2.7494,-2.7506,-2.7511,-2.752,-2.753,-2.7533,-2.7526,-2.7494,-2.7488,-2.7498,-2.7509,-2.7519,-2.7515,-2.736,-2.7485,-2.7484,-2.7483,-2.7483,-2.7482,-2.7605,-2.7624,-2.7612,-2.7623,-2.7617,-2.7616,-2.7632,-2.7615,-2.7624,-2.7629,-2.7607,-2.7625,-2.7616,-2.7616,-2.7612,-2.7626,-2.7603,-2.7617,-2.7621,-2.7625,-2.7632,-2.7516,-2.7626,-2.7625,-2.7625,-2.7625,-2.7625,0,-2.7725,-2.7715,-2.7724,-2.7722,-2.7731,-2.7698,-2.7694,-2.7704,-2.7719,-2.7714,-2.772,-2.7735,-2.7744,-2.7725,-2.7732,-2.7747,-2.7732,-2.775,-2.7749,-2.7748,-2.7652,-2.7643,-2.7761,-2.7761,-2.7761,-2.7761,-2.7761,-2.7761,-2.7788,-2.7819,-2.7802,-2.783,-2.782,-2.7836,-2.7837,-2.7836,-2.7831,-2.7849,-2.7856,-2.7843,-2.7832,-2.7838,-2.7846,-2.784,-2.7845,-2.7867,-2.7857,-2.7768,-2.7754,-2.7742,-2.7733,-2.7869,-2.7869,-2.7951,-2.7952,-2.7953]},{"header":{"parameterUnit":"m.s-1","parameterCategory":1,"la1":30.2991,"la2":30.254,"lo1":-89.0895,"lo2":-89.0444,"dy":0.0017,"dx":0.0017,"nx":28,"ny":28,"refTime":"2023-11-11T09:00:00:Z","depth":0,"parameterNumber":3,"parameterNumberName":"V-component_of_WINDS"},"data":[0,0,0,0,0,0,0,0,0,0,0,0,0,0,0,0,0,0,0,0,0,0,0,0,0,0,0,0,0,0,0,0,0,0,0,0,0,0,0,0,0,0,0,0,0,0,0,0,0,0,0,0,0,0,0,0,0,0,-4.6049,-4.6049,0,-4.6072,-4.6072,-4.6072,-4.6009,-4.6007,-4.6006,-4.6004,-4.6024,-4.6026,-4.6029,0,0,0,0,0,0,0,0,0,0,0,0,0,-4.5947,-4.5949,-4.6049,-4.6049,-4.6049,-4.6071,-4.6072,-4.6072,-4.601,-4.6007,-4.6005,-4.6003,-4.6023,-4.6026,-4.6029,0,0,0,0,0,0,0,0,0,0,0,0,0,-4.5983,-4.595,-4.6048,-4.6021,-4.6019,-4.6071,-4.6072,-4.6072,-4.601,-4.6007,-4.6004,-4.6002,-4.6023,-4.6026,-4.6029,-4.6109,0,0,-4.604,-4.6042,0,0,0,0,0,0,0,0,-4.5981,-4.5987,-4.6025,-4.6023,-4.602,-4.6035,-4.6043,-4.6084,-4.6011,-4.6013,-4.6004,-4.6,-4.603,-4.6033,-4.6043,-4.611,-4.6111,-4.6041,-4.6043,-4.6044,-4.6045,0,0,0,0,0,0,0,-4.5978,-4.5985,-4.6057,-4.6025,-4.6023,-4.6006,-4.6008,-4.6051,-4.6037,-4.6013,-4.6008,-4.6012,-4.6028,-4.604,-4.6043,-4.6111,-4.604,-4.6044,-4.6046,-4.6047,-4.6244,-4.6247,0,0,0,0,0,0,-4.598,-4.5984,-4.6057,-4.6058,-4.5993,-4.601,-4.6012,-4.6033,-4.6037,-4.6035,-4.6015,-4.6009,-4.6035,-4.6039,-4.6044,-4.6137,-4.6044,-4.6047,-4.6049,-4.6241,-4.6245,-4.6249,0,0,0,0,0,0,-4.5978,-4.5987,-4.6056,-4.602,-4.6027,-4.6015,-4.6039,-4.6035,-4.6047,-4.6038,-4.6035,-4.6029,-4.6033,-4.6039,-4.6093,-4.6137,-4.6049,-4.6052,-4.6238,-4.6243,-4.6247,-4.6325,0,0,0,0,0,0,-4.5975,-4.5987,-4.6018,-4.6021,-4.6029,-4.6107,-4.6041,-4.6037,-4.6053,-4.6046,-4.6051,-4.6049,-4.6031,-4.6089,-4.6097,-4.614,-4.6055,-4.6234,-4.624,-4.6245,-4.6319,-4.6332,-4.6343,0,0,0,0,0,-4.5972,-4.6038,-4.602,-4.6029,-4.6068,-4.6109,-4.6114,-4.6093,-4.6057,-4.6088,-4.6082,-4.6049,-4.6131,-4.6095,-4.6104,-4.6149,-4.6231,-4.6238,-4.6245,-4.6313,-4.6329,-4.6343,0,0,0,0,0,0,-4.604,-4.6038,-4.6018,-4.6087,-4.6099,-4.6099,-4.6136,-4.6111,-4.6132,-4.6125,-4.6096,-4.6098,-4.6158,-4.6158,-4.6118,-4.6226,-4.6175,-4.6184,-4.6223,-4.6239,-4.6251,-4.6249,-4.6058,0,0,0,0,0,-4.6063,-4.6098,-4.6094,-4.6156,-4.6163,-4.6149,-4.6166,-4.6149,-4.6159,-4.6164,-4.6162,-4.6173,-4.6201,-4.622,-4.6245,-4.6318,-4.6318,-4.6354,-4.6366,-4.6376,-4.6384,-4.6423,-4.6438,-4.6272,-4.6272,-4.6271,0,0,-4.6111,-4.6114,-4.6138,-4.6169,-4.6176,-4.6212,-4.6153,-4.6193,-4.6219,-4.6169,-4.6221,-4.622,-4.623,-4.6295,-4.6323,-4.6297,-4.643,-4.6385,-4.6393,-4.6396,-4.6432,-4.6447,-4.6461,-4.6276,-4.6276,-4.6275,0,0,-4.6216,-4.6223,-4.6275,-4.6283,-4.6295,-4.6285,-4.6298,-4.6302,-4.63,-4.6351,-4.6315,-4.6344,-4.6393,-4.6402,-4.6413,-4.6522,-4.6492,-4.653,-4.6595,-4.6633,-4.6646,-4.6657,-4.6696,-4.671,-4.6539,-4.6539,-4.6539,0,-4.6274,-4.6327,-4.6304,-4.6347,-4.6362,-4.6319,-4.6371,-4.638,-4.6399,-4.641,-4.6381,-4.6441,-4.6445,-4.6511,-4.6538,-4.6548,-4.6561,-4.653,-4.6646,-4.6657,-4.6668,-4.6704,-4.6719,-4.6543,-4.6543,-4.6542,-4.6542,0,-4.6397,-4.6435,-4.6475,-4.6496,-4.6515,-4.6562,-4.6545,-4.6567,-4.6548,-4.6541,-4.6594,-4.6597,-4.6623,-4.6637,-4.6618,-4.67,-4.6684,-4.6651,-4.6599,-4.6689,-4.6722,-4.6736,-4.655,-4.6548,-4.6547,-4.6546,0,0,-4.6546,-4.6554,-4.6569,-4.6578,-4.6588,-4.6616,-4.666,-4.6686,-4.6705,-4.6719,-4.6756,-4.6798,-4.6768,-4.678,-4.6762,-4.6796,-4.6881,-4.6759,-4.6758,-4.6781,-4.6971,-4.6996,-4.7012,-4.6862,-4.6864,-4.6866,-4.697,0,-4.665,-4.6728,-4.6709,-4.6786,-4.6819,-4.678,-4.6818,-4.6828,-4.6823,-4.685,-4.6843,-4.6874,-4.6832,-4.6839,-4.687,-4.6864,-4.6919,-4.6857,-4.6894,-4.6896,-4.6893,-4.703,-4.7056,-4.7154,-4.6983,-4.6985,-4.6987,0,-4.6782,-4.6803,-4.6883,-4.6888,-4.6901,-4.6936,-4.6958,-4.6985,-4.6994,-4.6988,-4.7002,-4.6978,-4.7021,-4.6969,-4.7027,-4.6985,-4.6999,-4.6999,-4.7002,-4.7005,-4.6947,-4.7036,-4.7184,-4.7199,-4.7007,-4.7006,-4.7004,0,-4.6882,-4.693,-4.6984,-4.6993,-4.7,-4.7025,-4.7029,-4.7036,-4.7053,-4.7071,-4.7081,-4.7104,-4.7117,-4.7135,-4.7117,-4.7081,-4.7178,-4.7125,-4.7174,-4.7174,-4.7196,-4.7195,-4.7349,-4.7206,-4.7205,-4.7205,-4.7205,0,-4.7,-4.7051,-4.703,-4.7063,-4.7119,-4.7095,-4.715,-4.7149,-4.7156,-4.7188,-4.7154,-4.7184,-4.7159,-4.7187,-4.7173,-4.7223,-4.7229,-4.7225,-4.722,-4.7228,-4.7228,-4.7236,-4.7229,-4.7209,-4.7208,-4.7207,-4.7207,0,-4.7122,-4.7109,-4.7166,-4.7168,-4.7169,-4.721,-4.7211,-4.7241,-4.7233,-4.7274,-4.7282,-4.727,-4.7301,-4.7285,-4.7316,-4.7307,-4.7372,-4.7359,-4.7369,-4.7366,-4.7416,-4.7411,-4.758,-4.7601,-4.7445,-4.7446,-4.7447,0,-4.7198,-4.7236,-4.7242,-4.7262,-4.7268,-4.7299,-4.7316,-4.7295,-4.7313,-4.7327,-4.7356,-4.7384,-4.7406,-4.7457,-4.745,-4.7474,-4.7461,-4.7518,-4.7464,-4.747,-4.7461,-4.7459,-4.7463,-4.7529,-4.7531,-4.7533,-4.7534,0,-4.7334,-4.7326,-4.7353,-4.7377,-4.7398,-4.7416,-4.7431,-4.7449,-4.7427,-4.745,-4.7482,-4.7498,-4.7531,-4.7559,-4.758,-4.7582,-4.7555,-4.7551,-4.7564,-4.7571,-4.7576,-4.7574,-4.7399,-4.7547,-4.7546,-4.7545,-4.7544,-4.7544,-4.7435,-4.7467,-4.7477,-4.7507,-4.7516,-4.7531,-4.7559,-4.7556,-4.7582,-4.7608,-4.7593,-4.763,-4.7638,-4.7663,-4.7669,-4.7698,-4.7674,-4.7693,-4.7697,-4.7702,-4.7709,-4.7572,-4.7701,-4.7701,-4.77,-4.77,-4.77,0,-4.757,-4.7574,-4.7602,-4.7624,-4.7648,-4.7621,-4.7635,-4.7657,-4.769,-4.7701,-4.7723,-4.7759,-4.7786,-4.7782,-4.7806,-4.783,-4.7817,-4.7837,-4.7835,-4.7836,-4.7728,-4.7715,-4.7846,-4.7846,-4.7846,-4.7846,-4.7846,-4.7846,-4.7642,-4.7695,-4.7689,-4.7745,-4.7748,-4.7785,-4.7796,-4.7809,-4.7818,-4.786,-4.7883,-4.788,-4.7884,-4.7909,-4.7932,-4.793,-4.7941,-4.7965,-4.7958,-4.7858,-4.7843,-4.7829,-4.7817,-4.7967,-4.7967,-4.8063,-4.8064,-4.8065]}]]